This demonstration page uses our WeatherBlox Daily Observations layout. Learn more.

Left ArrowRight Arrow

Hourly Observations for December 28, 2019

Temp ( °F °C ) Dew Point ( °F °C ) Humidity (%) Winds ( mph kmh ) Pressure ( in mb ) Visibility ( mi km ) Precip ( " mm )
12:53 am 00:53 Clear 21 -6.1 14 -10 74 74 SSW 12 19 30.07 1018 10 16 0.00 0.00
1:53 am 01:53 Clear 19 -7.2 14 -10 81 81 WSW 8 13 30.10 1019 10 16 0.00 0.00
2:53 am 02:53 Clear 16 -8.9 12 -11.1 84 84 SSW 10 17 30.13 1020 10 16 0.00 0.00
3:53 am 03:53 Mostly Cloudy 17 -8.3 13 -10.6 84 84 SW 8 13 30.15 1021 10 16 0.00 0.00
4:53 am 04:53 Cloudy 20 -6.7 15 -9.4 81 81 SW 9 15 30.17 1022 10 16 0.00 0.00
5:53 am 05:53 Partly Cloudy 19 -7.2 15 -9.4 84 84 SW 9 15 30.19 1022 10 16 0.00 0.00
6:53 am 06:53 Partly Cloudy 21 -6.1 16 -8.9 81 81 SW 8 13 30.20 1023 10 16 0.00 0.00
7:53 am 07:53 Cloudy 22 -5.6 17 -8.3 82 82 SW 9 15 30.21 1023 10 16 0.00 0.00
8:53 am 08:53 Cloudy 22 -5.6 17 -8.3 82 82 WSW 8 13 30.24 1024 10 16 0.00 0.00
9:53 am 09:53 Cloudy 24 -4.4 19 -7.2 81 81 WSW 7 11 30.26 1025 10 16 0.00 0.00
10:53 am 10:53 Cloudy 26 -3.3 20 -6.7 78 78 WSW 8 13 30.26 1025 10 16 0.00 0.00
11:53 am 11:53 Cloudy 28 -2.2 20 -6.7 72 72 W 5 7 30.24 1024 10 16 0.00 0.00
12:53 pm 12:53 Sunny 31 -0.6 20 -6.7 64 64 WSW 7 11 30.22 1024 10 16 0.00 0.00
1:53 pm 13:53 Sunny 32 0 19 -7.2 59 59 WSW 7 11 30.21 1023 10 16 0.00 0.00
2:53 pm 14:53 Sunny 32 0 20 -6.7 61 61 SW 8 13 30.23 1024 10 16 0.00 0.00
3:53 pm 15:53 Sunny 30 -1.1 20 -6.7 66 66 W 6 9 30.23 1024 10 16 0.00 0.00
4:53 pm 16:53 Clear 26 -3.3 18 -7.8 71 71 SSW 3 6 30.24 1024 10 16 0.00 0.00
5:53 pm 17:53 Clear 19 -7.2 16 -8.9 88 88 SE 5 7 30.24 1024 10 16 0.00 0.00
6:53 pm 18:53 Clear 18 -7.8 14 -10 84 84 ESE 3 6 30.24 1024 10 16 0.00 0.00
7:53 pm 19:53 Clear 17 -8.3 13 -10.6 84 84 Calm 30.23 1024 10 16 0.00 0.00
8:53 pm 20:53 Clear 15 -9.4 12 -11.1 88 88 E 5 7 30.23 1024 10 16 0.00 0.00
9:53 pm 21:53 Clear 14 -10 11 -11.7 88 88 Calm 30.23 1024 10 16 0.00 0.00
10:53 pm 22:53 Clear 14 -10 10 -12.2 84 84 E 7 11 30.22 1023 10 16 0.00 0.00
11:53 pm 23:53 Clear 14 -10 10 -12.2 84 84 E 6 9 30.21 1023 10 16 0.00 0.00

Powered by AerisWeather